[[{"header":{"parameterUnit":"m.s-1","parameterCategory":2,"la1":30.2992,"la2":30.254,"lo1":-89.0895,"lo2":-89.0443,"dy":0.0025,"dx":0.0025,"nx":19,"ny":19,"refTime":"2026-04-20T03:00:00:Z","depth":"0","parameterNumber":2,"parameterNumberName":"U-component_of_CURRENTS"},"data":[0,0,0,-0.2962,-0.2964,-0.3023,-0.3023,-0.305,-0.305,0,0,0,0,0,0,0,0,0,0,0,-0.2928,-0.2928,-0.2962,-0.2964,-0.3023,-0.3023,-0.305,-0.305,0,0,0,0,0,0,0,0,0,0,0,-0.2928,-0.2928,-0.2928,-0.2964,-0.3023,-0.3023,-0.305,-0.3015,0,0,0,0,0,0,0,0,0,0,-0.2962,-0.2929,-0.2928,-0.2928,-0.2965,-0.3023,-0.3023,-0.3014,-0.3017,-0.3012,0,-0.302,0,-0.3046,-0.3052,-0.3052,0,0,0,-0.2954,-0.2926,-0.2959,-0.2929,-0.2965,-0.3023,-0.2994,-0.3016,-0.302,-0.3016,-0.3021,-0.3023,-0.3046,-0.3052,-0.3052,-0.3107,-0.3107,0,0,-0.2951,-0.2923,-0.2956,-0.2961,-0.2979,-0.2992,-0.2996,-0.3019,-0.3011,-0.3021,-0.3024,-0.3047,-0.3052,-0.3052,-0.3106,-0.3107,0,0,0,-0.2948,-0.292,-0.2952,-0.2959,-0.298,-0.2994,-0.2998,-0.3009,-0.3025,-0.3025,-0.3047,-0.3052,-0.3052,-0.3106,-0.3106,-0.3155,0,0,0,-0.2946,-0.292,-0.2951,-0.2932,-0.298,-0.3,-0.2988,-0.3023,-0.3027,-0.3047,-0.3052,-0.3053,-0.3105,-0.3106,-0.3153,-0.3136,0,0,0,-0.2925,-0.2918,-0.2928,-0.2931,-0.2965,-0.3001,-0.3017,-0.3024,-0.3041,-0.3052,-0.3053,-0.3105,-0.3106,-0.3151,-0.3134,-0.3119,0,0,0,-0.2891,-0.2916,-0.2927,-0.297,-0.2965,-0.3046,-0.3017,-0.3058,-0.3073,-0.3052,-0.3105,-0.3106,-0.315,-0.3132,-0.3118,-0.2964,-0.2956,0,0,-0.2912,-0.2918,-0.2951,-0.2963,-0.3046,-0.3037,-0.311,-0.3105,-0.3083,-0.3091,-0.3093,-0.3154,-0.3133,-0.3118,-0.3023,-0.3012,0,0,0,-0.2953,-0.2969,-0.2999,-0.3046,-0.3102,-0.3131,-0.3149,-0.3144,-0.3146,-0.3099,-0.316,-0.3145,-0.3134,-0.3041,-0.3033,-0.2982,-0.3111,-0.3111,-0.3111,-0.2915,-0.2978,-0.3028,-0.3102,-0.315,-0.3202,-0.3212,-0.3203,-0.3201,-0.3203,-0.3192,-0.3218,-0.3122,-0.3114,-0.3065,-0.322,-0.322,-0.322,-0.322,-0.2929,-0.2945,-0.3031,-0.3095,-0.3154,-0.3204,-0.3253,-0.3251,-0.3247,-0.3239,-0.3228,-0.3105,-0.3107,-0.3059,-0.3224,-0.3223,-0.3223,-0.3222,-0.3222,-0.287,-0.2884,-0.294,-0.3027,-0.3098,-0.318,-0.3216,-0.3261,-0.325,-0.3255,-0.3126,-0.3123,-0.3069,-0.3255,-0.3255,-0.3255,-0.3255,-0.3255,-0.3254,-0.2754,-0.2822,-0.2841,-0.2954,-0.2997,-0.308,-0.3189,-0.3199,-0.3169,-0.3133,-0.3131,-0.3059,-0.3227,-0.3213,-0.3253,-0.3253,-0.3253,-0.3254,-0.3254,-0.2635,-0.2674,-0.2702,-0.2741,-0.2857,-0.2863,-0.3038,-0.3018,-0.3045,-0.2977,-0.2906,-0.3057,-0.301,-0.3014,-0.2993,-0.2974,-0.2974,-0.2974,-0.2974,-0.2516,-0.2554,-0.2537,-0.2569,-0.264,-0.2742,-0.2664,-0.2714,-0.273,-0.2688,-0.2768,-0.274,-0.2754,-0.2692,-0.2703,-0.2676,-0.2578,-0.2577,-0.2577,-0.2399,-0.2433,-0.2357,-0.2429,-0.2509,-0.2547,-0.2394,-0.2367,-0.2457,-0.2564,-0.2734,-0.275,-0.2719,-0.2744,-0.2655,-0.2675,-0.2634,0,0]},{"header":{"parameterUnit":"m.s-1","parameterCategory":2,"la1":30.2992,"la2":30.254,"lo1":-89.0895,"lo2":-89.0443,"dy":0.0025,"dx":0.0025,"nx":19,"ny":19,"refTime":"2026-04-20T03:00:00:Z","depth":"0","parameterNumber":3,"parameterNumberName":"V-component_of_CURRENTS"},"data":[0,0,0,-0.0437,-0.0436,-0.0318,-0.0317,-0.0113,-0.0111,0,0,0,0,0,0,0,0,0,0,0,-0.0479,-0.0479,-0.0438,-0.0436,-0.0318,-0.0317,-0.0113,-0.0111,0,0,0,0,0,0,0,0,0,0,0,-0.0479,-0.0479,-0.0478,-0.0435,-0.0318,-0.0317,-0.0113,-0.021,0,0,0,0,0,0,0,0,0,0,-0.0328,-0.0388,-0.0479,-0.0478,-0.0435,-0.0319,-0.0317,-0.0215,-0.0204,-0.0158,0,-0.0157,0,-0.0138,-0.0098,-0.0098,0,0,0,-0.0411,-0.0398,-0.0365,-0.0478,-0.0434,-0.0319,-0.0364,-0.0209,-0.0196,-0.0144,-0.0155,-0.0147,-0.0135,-0.0097,-0.0096,0.004,0.004,0,0,-0.0417,-0.0449,-0.0374,-0.0358,-0.0424,-0.0368,-0.0361,-0.0202,-0.0197,-0.0154,-0.0142,-0.0132,-0.0096,-0.0095,0.004,0.004,0,0,0,-0.0453,-0.0454,-0.0426,-0.0367,-0.0354,-0.0365,-0.0357,-0.0203,-0.0195,-0.014,-0.0129,-0.0095,-0.0093,0.004,0.004,-0.0056,0,0,0,-0.0455,-0.0476,-0.043,-0.0446,-0.0359,-0.0287,-0.0363,-0.0206,-0.0187,-0.013,-0.0095,-0.0091,0.004,0.004,-0.0054,-0.0115,0,0,0,-0.0481,-0.0479,-0.0472,-0.0448,-0.0409,-0.0289,-0.027,-0.0201,-0.0181,-0.0098,-0.009,0.0039,0.004,-0.0052,-0.011,-0.0049,0,0,0,-0.0506,-0.0536,-0.0473,-0.0497,-0.041,-0.0362,-0.0271,-0.0218,-0.0158,-0.0094,0.004,0.004,-0.0051,-0.0107,-0.0047,0.0069,0.0072,0,0,-0.0566,-0.0544,-0.0558,-0.05,-0.0498,-0.0376,-0.0337,-0.0221,-0.0133,-0.0005,-0.0001,-0.0055,-0.011,-0.0049,0.0079,0.0082,0,0,0,-0.0591,-0.0607,-0.0593,-0.0573,-0.0505,-0.0426,-0.0306,-0.0236,-0.0121,-0.0099,-0.0024,-0.0055,-0.0013,0.0061,0.0063,0.035,0.004,0.004,0.004,-0.0707,-0.0672,-0.0696,-0.0641,-0.0592,-0.0451,-0.0371,-0.0244,-0.0162,-0.0126,-0.011,-0.0104,-0.0027,-0.0023,0.0269,-0.0072,-0.0073,-0.0073,-0.0073,-0.0818,-0.084,-0.0774,-0.0788,-0.0678,-0.0619,-0.0425,-0.0342,-0.02,-0.0164,-0.0116,-0.0018,-0.0026,0.0286,-0.0079,-0.0078,-0.0077,-0.0077,-0.0076,-0.0908,-0.0917,-0.0913,-0.0913,-0.0858,-0.072,-0.0616,-0.0463,-0.0296,-0.0256,-0.0079,-0.0075,0.0185,-0.0203,-0.0203,-0.0203,-0.0203,-0.0203,-0.0203,-0.1007,-0.1002,-0.1057,-0.1038,-0.1033,-0.0953,-0.0727,-0.0587,-0.0319,-0.0171,-0.0168,0.0239,-0.0141,-0.0152,-0.0203,-0.0203,-0.0203,-0.0203,-0.0203,-0.1127,-0.1123,-0.1214,-0.1236,-0.121,-0.1132,-0.0905,-0.0515,-0.0332,-0.0166,0.0338,-0.0073,-0.0013,-0.0012,-0.0017,-0.003,-0.003,-0.003,-0.003,-0.1206,-0.1212,-0.1333,-0.1385,-0.1376,-0.1215,-0.0905,-0.0445,0.0177,0.0507,0.0569,0.065,0.063,0.0732,0.0717,0.073,0.0906,0.0908,0.0909,-0.1278,-0.1313,-0.1405,-0.145,-0.1448,-0.1269,-0.0909,-0.0231,0.0659,0.0974,0.0947,0.0907,0.1047,0.0992,0.1167,0.1123,0.1147,0,0]}],[{"header":{"parameterUnit":"m.s-1","parameterCategory":2,"la1":30.2992,"la2":30.254,"lo1":-89.0895,"lo2":-89.0443,"dy":0.0025,"dx":0.0025,"nx":19,"ny":19,"refTime":"2026-04-20T03:00:00:Z","depth":"2","parameterNumber":2,"parameterNumberName":"U-component_of_CURRENTS"},"data":[0,0,0,-0.285,-0.2852,-0.2912,-0.2912,-0.2935,-0.2935,0,0,0,0,0,0,0,0,0,0,0,-0.2817,-0.2817,-0.285,-0.2852,-0.2912,-0.2912,-0.2935,-0.2935,0,0,0,0,0,0,0,0,0,0,0,-0.2817,-0.2817,-0.2817,-0.2852,-0.2912,-0.2912,-0.2935,-0.29,0,0,0,0,0,0,0,0,0,0,-0.2848,-0.2817,-0.2817,-0.2817,-0.2853,-0.2912,-0.2912,-0.2899,-0.2903,-0.2895,0,-0.2905,0,-0.2929,-0.2936,-0.2936,0,0,0,-0.2842,-0.2815,-0.2846,-0.2818,-0.2853,-0.2912,-0.2882,-0.2901,-0.2905,-0.2899,-0.2905,-0.2907,-0.293,-0.2936,-0.2936,-0.2986,-0.2986,0,0,-0.2839,-0.2813,-0.2844,-0.2848,-0.2868,-0.288,-0.2884,-0.2904,-0.2897,-0.2905,-0.2908,-0.293,-0.2936,-0.2936,-0.2985,-0.2986,0,0,0,-0.2836,-0.281,-0.2841,-0.2846,-0.2867,-0.2882,-0.2887,-0.2896,-0.2911,-0.2909,-0.293,-0.2936,-0.2937,-0.2985,-0.2986,-0.3037,0,0,0,-0.2833,-0.281,-0.284,-0.2823,-0.2867,-0.2888,-0.2877,-0.2909,-0.2913,-0.293,-0.2936,-0.2937,-0.2984,-0.2985,-0.3035,-0.3019,0,0,0,-0.2814,-0.2808,-0.2818,-0.2821,-0.2855,-0.2889,-0.2904,-0.291,-0.2926,-0.2936,-0.2937,-0.2984,-0.2985,-0.3033,-0.3016,-0.3001,0,0,0,-0.2781,-0.2806,-0.2817,-0.2858,-0.2855,-0.2932,-0.2904,-0.2944,-0.2958,-0.2936,-0.2984,-0.2985,-0.3032,-0.3015,-0.3,-0.2837,-0.2828,0,0,-0.2801,-0.2807,-0.2839,-0.2851,-0.293,-0.2923,-0.2992,-0.2989,-0.2967,-0.2971,-0.2973,-0.3036,-0.3016,-0.3001,-0.2894,-0.2882,0,0,0,-0.284,-0.2856,-0.2884,-0.2929,-0.2982,-0.3011,-0.3029,-0.3025,-0.3028,-0.2982,-0.3041,-0.3026,-0.3015,-0.2915,-0.2908,-0.299,-0.299,-0.299,-0.299,-0.2805,-0.2864,-0.2911,-0.2981,-0.3027,-0.3078,-0.3089,-0.3081,-0.308,-0.3084,-0.3074,-0.3101,-0.2998,-0.2989,-0.3101,-0.3101,-0.3101,-0.3101,-0.3101,-0.2817,-0.2832,-0.2913,-0.2975,-0.3031,-0.3081,-0.3129,-0.3129,-0.3128,-0.3121,-0.311,-0.2982,-0.2983,-0.3106,-0.3105,-0.3104,-0.3104,-0.3103,-0.3103,-0.276,-0.2772,-0.2827,-0.291,-0.298,-0.306,-0.3096,-0.3142,-0.3133,-0.314,-0.3004,-0.3001,-0.3097,-0.3141,-0.3141,-0.3141,-0.3141,-0.314,-0.314,-0.2649,-0.2714,-0.2732,-0.2841,-0.2882,-0.2964,-0.3072,-0.3083,-0.305,-0.3012,-0.301,-0.3112,-0.3111,-0.3097,-0.3139,-0.3139,-0.3139,-0.3139,-0.314,-0.2533,-0.2572,-0.2597,-0.2635,-0.2745,-0.2731,-0.2917,-0.2894,-0.2924,-0.2853,-0.2926,-0.2932,-0.2882,-0.2886,-0.2866,-0.2845,-0.2845,-0.2845,-0.2845,-0.2418,-0.2455,-0.2436,-0.2464,-0.2529,-0.2604,-0.2475,-0.2443,-0.2521,-0.2485,-0.25,-0.2461,-0.2481,-0.2407,-0.2422,-0.2392,-0.2247,-0.2246,-0.2245,-0.2303,-0.2336,-0.226,-0.2327,-0.2399,-0.2392,-0.2133,-0.1887,-0.1933,-0.222,-0.2388,-0.2807,-0.2791,-0.2806,-0.2726,-0.2738,-0.2703,0,0]},{"header":{"parameterUnit":"m.s-1","parameterCategory":2,"la1":30.2992,"la2":30.254,"lo1":-89.0895,"lo2":-89.0443,"dy":0.0025,"dx":0.0025,"nx":19,"ny":19,"refTime":"2026-04-20T03:00:00:Z","depth":"2","parameterNumber":3,"parameterNumberName":"V-component_of_CURRENTS"},"data":[0,0,0,-0.0456,-0.0454,-0.034,-0.0339,-0.014,-0.0138,0,0,0,0,0,0,0,0,0,0,0,-0.0496,-0.0496,-0.0456,-0.0454,-0.034,-0.0339,-0.014,-0.0138,0,0,0,0,0,0,0,0,0,0,0,-0.0496,-0.0496,-0.0495,-0.0454,-0.034,-0.0339,-0.014,-0.0234,0,0,0,0,0,0,0,0,0,0,-0.0349,-0.0408,-0.0496,-0.0495,-0.0453,-0.034,-0.0339,-0.0239,-0.0228,-0.0184,0,-0.0183,0,-0.0165,-0.0126,-0.0125,0,0,0,-0.043,-0.0417,-0.0385,-0.0495,-0.0452,-0.034,-0.0384,-0.0233,-0.0221,-0.017,-0.0181,-0.0173,-0.0162,-0.0125,-0.0124,0.0009,0.0009,0,0,-0.0436,-0.0467,-0.0394,-0.0379,-0.0443,-0.0388,-0.0381,-0.0226,-0.0221,-0.018,-0.0169,-0.0158,-0.0123,-0.0122,0.0009,0.0009,0,0,0,-0.047,-0.0472,-0.0445,-0.0387,-0.0375,-0.0386,-0.0377,-0.0228,-0.022,-0.0167,-0.0156,-0.0122,-0.012,0.0009,0.0009,-0.0087,0,0,0,-0.0473,-0.0494,-0.0448,-0.0464,-0.0379,-0.0309,-0.0383,-0.023,-0.0212,-0.0157,-0.0122,-0.0118,0.0009,0.0009,-0.0085,-0.0145,0,0,0,-0.0497,-0.0496,-0.0489,-0.0466,-0.0428,-0.0311,-0.0293,-0.0226,-0.0206,-0.0125,-0.0118,0.0009,0.0009,-0.0082,-0.014,-0.0083,0,0,0,-0.0522,-0.0552,-0.049,-0.0514,-0.0429,-0.0383,-0.0294,-0.0242,-0.0184,-0.0121,0.0009,0.0009,-0.0082,-0.0137,-0.0082,0.0021,0.0023,0,0,-0.0581,-0.056,-0.0573,-0.0516,-0.0515,-0.0396,-0.036,-0.0246,-0.0159,-0.0034,-0.0031,-0.0085,-0.0139,-0.0083,0.0032,0.0033,0,0,0,-0.0605,-0.0621,-0.0608,-0.0589,-0.0523,-0.0447,-0.033,-0.0262,-0.0149,-0.0126,-0.0054,-0.0085,-0.0046,0.002,0.0021,0.001,0.001,0.001,0.001,-0.0719,-0.0685,-0.0709,-0.0657,-0.061,-0.0473,-0.0396,-0.0271,-0.019,-0.0154,-0.014,-0.0136,-0.0068,-0.0065,-0.0102,-0.0102,-0.0102,-0.0103,-0.0103,-0.0829,-0.0851,-0.0788,-0.0803,-0.0697,-0.064,-0.0452,-0.037,-0.023,-0.0193,-0.0148,-0.0057,-0.007,-0.011,-0.0109,-0.0108,-0.0107,-0.0106,-0.0106,-0.0918,-0.0927,-0.0924,-0.0927,-0.0876,-0.0742,-0.0643,-0.0492,-0.0327,-0.0288,-0.0123,-0.012,-0.0182,-0.0237,-0.0237,-0.0237,-0.0237,-0.0237,-0.0237,-0.1017,-0.1013,-0.1069,-0.1052,-0.1048,-0.0973,-0.0753,-0.0617,-0.036,-0.0216,-0.0213,-0.018,-0.0175,-0.0186,-0.0238,-0.0238,-0.0238,-0.0238,-0.0238,-0.1137,-0.1132,-0.1224,-0.1247,-0.1226,-0.1157,-0.0934,-0.0561,-0.0383,-0.0223,-0.0125,-0.0127,-0.007,-0.0068,-0.0073,-0.0093,-0.0093,-0.0093,-0.0093,-0.1216,-0.1221,-0.1343,-0.1397,-0.1392,-0.1242,-0.0967,-0.0578,-0.0225,-0.0075,-0.0077,-0.0054,-0.0058,0.0002,0.0002,-0.0002,-0.0003,-0.0003,-0.0004,-0.1289,-0.1323,-0.1416,-0.1463,-0.1465,-0.1303,-0.1001,-0.0506,-0.0066,-0.0009,-0.015,-0.007,-0.0037,-0.0044,0.005,0.0049,0.0045,0,0]}],[{"header":{"parameterUnit":"m.s-1","parameterCategory":2,"la1":30.2992,"la2":30.254,"lo1":-89.0895,"lo2":-89.0443,"dy":0.0025,"dx":0.0025,"nx":19,"ny":19,"refTime":"2026-04-20T03:00:00:Z","depth":"4","parameterNumber":2,"parameterNumberName":"U-component_of_CURRENTS"},"data":[0,0,0,-0.1983,-0.1986,-0.2146,-0.2146,-0.2227,-0.2227,0,0,0,0,0,0,0,0,0,0,0,-0.1932,-0.1933,-0.1982,-0.1986,-0.2146,-0.2146,-0.2226,-0.2227,0,0,0,0,0,0,0,0,0,0,0,-0.1931,-0.1933,-0.1934,-0.1987,-0.2146,-0.2146,-0.2226,-0.2137,0,0,0,0,0,0,0,0,0,0,-0.1997,-0.1969,-0.1932,-0.1934,-0.1988,-0.2145,-0.2146,-0.2134,-0.2142,-0.2119,0,-0.2156,0,-0.2189,-0.2229,-0.223,0,0,0,-0.1986,-0.1962,-0.2004,-0.1934,-0.1989,-0.2145,-0.2074,-0.2139,-0.2149,-0.213,-0.2157,-0.2161,-0.2191,-0.223,-0.223,-0.2306,-0.2306,0,0,-0.1977,-0.1957,-0.1998,-0.201,-0.2044,-0.2069,-0.2079,-0.2147,-0.2159,-0.2158,-0.2164,-0.2192,-0.223,-0.223,-0.2305,-0.2306,0,0,0,-0.1952,-0.1951,-0.1994,-0.2006,-0.2043,-0.2073,-0.2085,-0.2157,-0.2171,-0.2165,-0.2193,-0.223,-0.2231,-0.2305,-0.2306,-0.2373,0,0,0,-0.1947,-0.1937,-0.199,-0.1979,-0.2043,-0.2119,-0.2093,-0.2167,-0.2176,-0.2193,-0.223,-0.2231,-0.2304,-0.2305,-0.237,-0.2357,0,0,0,-0.1922,-0.1934,-0.1957,-0.1978,-0.2047,-0.2119,-0.2139,-0.2171,-0.2192,-0.223,-0.2231,-0.2304,-0.2305,-0.2367,-0.2353,-0.2342,0,0,0,-0.1889,-0.1926,-0.1957,-0.2014,-0.2046,-0.2145,-0.214,-0.2219,-0.2258,-0.223,-0.2304,-0.2305,-0.2366,-0.2351,-0.234,-0.2043,0,0,0,-0.1911,-0.1929,-0.1963,-0.1994,-0.2084,-0.2122,-0.2217,-0.2266,-0.2263,-0.2271,-0.2274,-0.2371,-0.2353,-0.2341,-0.2123,0,0,0,0,-0.1954,-0.1978,-0.2012,-0.2078,-0.215,-0.2219,-0.2283,-0.2303,-0.2353,-0.2293,-0.2378,-0.2364,-0.2354,-0.2178,-0.2312,-0.2312,-0.2311,-0.2311,-0.2311,-0.193,-0.1988,-0.2047,-0.2127,-0.2197,-0.2297,-0.2345,-0.238,-0.2393,-0.2427,-0.2427,-0.2468,-0.2288,-0.2456,-0.2456,-0.2457,-0.2457,-0.2457,-0.2457,-0.1934,-0.195,-0.2056,-0.2136,-0.2228,-0.2315,-0.2404,-0.2437,-0.2481,-0.2484,-0.2474,-0.2272,-0.2464,-0.2463,-0.2462,-0.2461,-0.2461,-0.246,-0.246,-0.1872,-0.1884,-0.1971,-0.2087,-0.2205,-0.2324,-0.238,-0.2473,-0.2503,-0.2524,-0.2311,-0.2486,-0.2468,-0.2532,-0.2531,-0.2531,-0.2531,-0.2531,-0.2531,-0.1744,-0.1831,-0.1884,-0.2033,-0.2108,-0.2223,-0.2375,-0.2387,-0.246,-0.2316,-0.2535,-0.2491,-0.2489,-0.2471,-0.253,-0.253,-0.2531,-0.2531,-0.2531,-0.1614,-0.168,-0.1733,-0.181,-0.1963,-0.2024,-0.2233,-0.2199,-0.218,-0.2089,-0.2189,-0.2206,-0.2134,-0.214,-0.2107,-0.2061,-0.2057,-0.2053,0,-0.15,-0.1544,-0.1578,-0.1635,-0.1686,-0.1875,-0.1803,-0.1867,-0.1909,-0.1838,-0.215,-0.2263,-0.2274,-0.2195,-0.2194,-0.2155,0,0,0,-0.1396,-0.143,-0.1395,-0.1487,-0.1533,-0.1593,-0.176,-0.1691,-0.1936,-0.1832,-0.1961,-0.1985,-0.2343,-0.2527,-0.2457,-0.2454,-0.242,0,0]},{"header":{"parameterUnit":"m.s-1","parameterCategory":2,"la1":30.2992,"la2":30.254,"lo1":-89.0895,"lo2":-89.0443,"dy":0.0025,"dx":0.0025,"nx":19,"ny":19,"refTime":"2026-04-20T03:00:00:Z","depth":"4","parameterNumber":3,"parameterNumberName":"V-component_of_CURRENTS"},"data":[0,0,0,-0.0343,-0.0342,-0.0277,-0.0277,-0.0133,-0.0131,0,0,0,0,0,0,0,0,0,0,0,-0.0366,-0.0366,-0.0343,-0.0342,-0.0277,-0.0277,-0.0133,-0.0131,0,0,0,0,0,0,0,0,0,0,0,-0.0366,-0.0366,-0.0366,-0.0342,-0.0277,-0.0277,-0.0133,-0.0192,0,0,0,0,0,0,0,0,0,0,-0.0261,-0.0304,-0.0366,-0.0366,-0.0342,-0.0278,-0.0277,-0.0196,-0.0189,-0.0151,0,-0.0157,0,-0.0148,-0.0122,-0.0122,0,0,0,-0.0321,-0.031,-0.0291,-0.0366,-0.0342,-0.0278,-0.0301,-0.0192,-0.0184,-0.0142,-0.0155,-0.015,-0.0146,-0.0121,-0.0121,-0.002,-0.002,0,0,-0.0325,-0.0348,-0.0297,-0.0286,-0.0343,-0.0303,-0.0299,-0.0188,-0.0187,-0.0154,-0.0147,-0.0144,-0.012,-0.0119,-0.002,-0.002,0,0,0,-0.0349,-0.0351,-0.0335,-0.0292,-0.0289,-0.0302,-0.0297,-0.0192,-0.0187,-0.0145,-0.0142,-0.012,-0.0118,-0.002,-0.002,-0.0111,0,0,0,-0.0351,-0.0366,-0.0337,-0.0349,-0.0292,-0.025,-0.0304,-0.0194,-0.0182,-0.0143,-0.012,-0.0117,-0.002,-0.002,-0.0109,-0.0157,0,0,0,-0.0365,-0.0368,-0.0366,-0.0351,-0.0332,-0.0252,-0.024,-0.0191,-0.018,-0.0122,-0.0116,-0.002,-0.002,-0.0107,-0.0153,-0.0128,0,0,0,-0.0381,-0.0404,-0.0367,-0.0389,-0.0333,-0.0309,-0.024,-0.0209,-0.0167,-0.0119,-0.002,-0.002,-0.0106,-0.015,-0.0126,-0.0149,0,0,0,-0.0422,-0.041,-0.0423,-0.0388,-0.04,-0.0315,-0.0303,-0.022,-0.0145,-0.0049,-0.0047,-0.0109,-0.0153,-0.0128,-0.0136,0,0,0,0,-0.0442,-0.0459,-0.0453,-0.0452,-0.0411,-0.037,-0.0287,-0.0233,-0.0147,-0.0123,-0.0079,-0.0103,-0.0085,-0.0091,-0.0019,-0.0019,-0.0019,-0.0019,-0.0019,-0.0524,-0.0508,-0.0537,-0.0512,-0.0489,-0.0402,-0.0351,-0.0254,-0.0186,-0.0157,-0.0156,-0.0171,-0.0181,-0.0123,-0.0123,-0.0124,-0.0124,-0.0124,-0.0125,-0.0609,-0.0631,-0.0607,-0.0636,-0.0576,-0.055,-0.0412,-0.0348,-0.0244,-0.02,-0.0176,-0.0161,-0.0133,-0.0131,-0.013,-0.0129,-0.0128,-0.0128,-0.0128,-0.0672,-0.0682,-0.0702,-0.0737,-0.0727,-0.0646,-0.0588,-0.0469,-0.0333,-0.031,-0.0256,-0.0209,-0.0223,-0.0282,-0.0282,-0.0282,-0.0282,-0.0282,-0.0282,-0.0729,-0.0745,-0.0814,-0.0839,-0.0862,-0.0834,-0.0686,-0.059,-0.044,-0.0355,-0.0325,-0.0223,-0.0218,-0.0229,-0.0284,-0.0284,-0.0283,-0.0283,-0.0283,-0.0803,-0.0816,-0.0918,-0.0967,-0.1007,-0.097,-0.0848,-0.0621,-0.0517,-0.041,-0.0346,-0.0342,-0.0299,-0.0292,-0.0304,-0.0384,-0.0384,-0.0385,0,-0.0849,-0.0864,-0.0999,-0.108,-0.1108,-0.104,-0.0891,-0.074,-0.0543,-0.0552,-0.0534,-0.0474,-0.0466,-0.0429,-0.0422,-0.0445,0,0,0,-0.0896,-0.0935,-0.1031,-0.1112,-0.1148,-0.0967,-0.0843,-0.076,-0.0588,-0.0455,-0.0397,-0.0394,-0.0367,-0.029,-0.0214,-0.0208,-0.0221,0,0]}]]